User: anonymous   Login
Location: Unspecified
(0.0000°N, 0.0000°E)
Time: 21:50:13
(UTC+00:00)
Language:

BIRD MM - Orbit

View from above orbital plane
View from above orbital plane
View from above satellite
View from above satellite

Ground track
Ground track

The orbit data is extracted from the following two-line orbital elements,

1 42822U 98067MW  18316.47999866  .00038800  00000-0  25256-3 0  9997
2 42822  51.6341 323.2401 0004363  35.6024 324.5266 15.75514062 77144
Epoch (UTC): 12 November 2018 11:31:11
Eccentricity: 0.0004363
inclination: 51.6341°
perigee height: 340 km
apogee height: 346 km
right ascension of ascending node: 323.2401°
argument of perigee: 35.6024°
revolutions per day: 15.75514062
mean anomaly at epoch: 324.5266°
orbit number at epoch: 7714

The dashed part of the orbit path shows where the satellite is in the earth's shadow,  

DLR